Location: Raleigh
(35.7720°N, 78.6390°W)
Time: 08:37:08
(UTC-04:00)

JAS-2 - Visible Passes

Search period start: 25 October 2014 00:00
Search period end: 03 November 2014 23:00
Orbit: 801 x 1321 km, 98.5° (Epoch: 24 October)

Date Brightness Start Highest point End Pass type
(mag) Time Alt. Az. Time Alt. Az. Time Alt. Az.
25 Oct 12.8 05:14:05 10° NE 05:18:45 17° E 05:23:20 10° SE visible
25 Oct 10.2 06:56:35 10° NNE 07:04:27 87° WNW 07:12:12 10° SSW visible
25 Oct 11.3 18:51:01 10° SSW 18:56:24 38° W 19:02:27 10° NNW visible
26 Oct 11.5 06:02:08 10° NNE 06:09:26 41° E 06:16:33 10° SSE visible
26 Oct 12.8 19:44:19 10° WSW 19:47:11 14° W 19:50:12 10° WNW visible
27 Oct 12.8 05:09:38 10° NE 05:13:54 15° E 05:18:05 10° ESE visible
27 Oct 10.2 06:51:47 10° NNE 06:59:41 89° ESE 07:07:23 10° SSW visible
27 Oct 11.1 18:45:54 10° SSW 18:51:28 42° W 18:57:46 10° NNW visible
28 Oct 11.6 05:57:25 10° NNE 06:04:37 38° E 06:11:35 10° SSE visible
28 Oct 12.7 19:38:48 10° WSW 19:42:13 15° W 19:45:52 10° NW visible
29 Oct 12.9 05:05:15 10° ENE 05:09:02 14° E 05:12:44 10° ESE visible
29 Oct 10.3 06:47:00 10° NNE 06:54:56 85° ESE 07:02:34 10° SSW visible
29 Oct 11.0 18:40:48 10° S 18:46:33 46° W 18:53:04 10° NNW visible
30 Oct 11.7 05:52:44 10° NNE 05:59:49 36° E 06:06:36 10° SSE visible
30 Oct 12.6 19:33:22 10° SW 19:37:16 17° W 19:41:27 10° NW visible
31 Oct 12.9 05:00:58 10° ENE 05:04:09 13° E 05:07:17 10° ESE visible
31 Oct 10.3 06:42:14 10° NNE 06:50:09 80° ESE 06:57:42 10° S visible
31 Oct 10.8 18:35:43 10° S 18:41:38 50° W 18:48:22 10° NNW visible
01 Nov 11.8 05:48:04 10° NNE 05:55:00 33° E 06:01:35 10° SSE visible
01 Nov 12.5 19:28:01 10° SW 19:32:19 19° W 19:36:59 10° NW visible
02 Nov 13.0 03:56:53 10° ENE 03:59:16 12° E 04:01:37 10° ESE visible
02 Nov 10.4 05:37:28 10° NNE 05:45:23 76° ESE 05:52:50 10° S visible
02 Nov 10.7 17:30:40 10° S 17:36:44 55° W 17:43:40 10° NNW visible
03 Nov 11.9 04:43:25 10° NE 04:50:10 31° E 04:56:32 10° SSE visible
03 Nov 12.4 18:22:43 10° SW 18:27:23 21° W 18:32:28 10° NW visible
